Time,TemperatureF,DewpointF,PressureIn,WindDirection,WindDirectionDegrees,WindSpeedMPH,WindSpeedGustMPH,Humidity,HourlyPrecipIn,Conditions,Clouds,dailyrainin,SolarRadiationWatts/m^2,SoftwareType,DateUTC
2013-09-30 00:04:00,66.6,37.4,30.05,North,355,0.0,3.0,34,0.00,,,0.00,0.0,meteohub,2013-09-30 07:04:00,
2013-09-30 00:09:00,66.4,37.9,30.05,North,355,0.0,3.0,35,0.00,,,0.00,0.0,meteohub,2013-09-30 07:09:00,
2013-09-30 00:14:00,65.8,38.1,30.05,North,355,0.0,2.0,36,0.00,,,0.00,0.0,meteohub,2013-09-30 07:14:00,
2013-09-30 00:19:00,65.5,37.8,30.05,North,355,0.0,2.0,36,0.00,,,0.00,0.0,meteohub,2013-09-30 07:19:00,
2013-09-30 00:24:00,64.8,37.9,30.05,North,355,0.0,2.0,37,0.00,,,0.00,0.0,meteohub,2013-09-30 07:24:00,
2013-09-30 00:29:00,64.2,38.1,30.05,North,355,0.0,1.0,38,0.00,,,0.00,0.0,meteohub,2013-09-30 07:29:00,
2013-09-30 00:34:00,63.7,38.3,30.05,North,355,0.0,1.0,39,0.00,,,0.00,0.0,meteohub,2013-09-30 07:34:00,
2013-09-30 00:39:00,63.0,37.6,30.05,North,355,0.0,1.0,39,0.00,,,0.00,0.0,meteohub,2013-09-30 07:39:00,
2013-09-30 00:44:00,62.4,37.8,30.05,North,355,0.0,1.0,40,0.00,,,0.00,0.0,meteohub,2013-09-30 07:44:00,
2013-09-30 00:49:00,61.9,37.9,30.05,North,355,0.0,1.0,41,0.00,,,0.00,0.0,meteohub,2013-09-30 07:49:00,
2013-09-30 00:54:00,61.5,38.3,30.05,North,355,0.0,1.0,42,0.00,,,0.00,0.0,meteohub,2013-09-30 07:54:00,
2013-09-30 00:59:00,61.2,38.5,30.05,North,355,0.0,1.0,43,0.00,,,0.00,0.0,meteohub,2013-09-30 07:59:00,
2013-09-30 01:04:00,60.6,38.7,30.06,North,355,0.0,0.0,44,0.00,,,0.00,0.0,meteohub,2013-09-30 08:04:00,
2013-09-30 01:09:00,60.3,38.3,30.06,North,355,0.0,0.0,44,0.00,,,0.00,0.0,meteohub,2013-09-30 08:09:00,
2013-09-30 01:14:00,60.1,38.1,30.06,North,355,1.0,1.0,44,0.00,,,0.00,0.0,meteohub,2013-09-30 08:14:00,
2013-09-30 01:19:00,60.1,38.7,30.06,North,355,0.0,1.0,45,0.00,,,0.00,0.0,meteohub,2013-09-30 08:19:00,
2013-09-30 01:24:00,59.9,37.9,30.06,North,355,0.0,1.0,44,0.00,,,0.00,0.0,meteohub,2013-09-30 08:24:00,
2013-09-30 01:29:00,59.9,38.5,30.06,North,355,0.0,1.0,45,0.00,,,0.00,0.0,meteohub,2013-09-30 08:29:00,
2013-09-30 01:34:00,60.1,38.1,30.06,North,355,0.0,1.0,44,0.00,,,0.00,0.0,meteohub,2013-09-30 08:34:00,
2013-09-30 01:39:00,60.1,38.1,30.06,North,355,1.0,1.0,44,0.00,,,0.00,0.0,meteohub,2013-09-30 08:39:00,
2013-09-30 01:44:00,60.1,38.1,30.06,North,355,1.0,0.0,44,0.00,,,0.00,0.0,meteohub,2013-09-30 08:44:00,
2013-09-30 01:49:00,59.7,38.3,30.06,North,355,0.0,2.0,45,0.00,,,0.00,0.0,meteohub,2013-09-30 08:49:00,
2013-09-30 01:54:00,59.5,38.1,30.06,North,355,0.0,2.0,45,0.00,,,0.00,0.0,meteohub,2013-09-30 08:54:00,
2013-09-30 01:59:00,59.5,38.1,30.06,North,355,0.0,2.0,45,0.00,,,0.00,0.0,meteohub,2013-09-30 08:59:00,
2013-09-30 02:04:00,59.4,38.7,30.06,North,355,0.0,1.0,46,0.00,,,0.00,0.0,meteohub,2013-09-30 09:04:00,
2013-09-30 02:09:00,59.2,37.9,30.06,North,355,0.0,1.0,45,0.00,,,0.00,0.0,meteohub,2013-09-30 09:09:00,
2013-09-30 02:15:00,59.0,38.3,30.05,North,355,0.0,1.0,46,0.00,,,0.00,0.0,meteohub,2013-09-30 09:15:00,
2013-09-30 02:20:00,58.8,38.1,30.05,North,355,0.0,0.0,46,0.00,,,0.00,0.0,meteohub,2013-09-30 09:20:00,
2013-09-30 02:25:00,58.8,38.1,30.05,North,355,1.0,0.0,46,0.00,,,0.00,0.0,meteohub,2013-09-30 09:25:00,
2013-09-30 02:30:00,59.0,37.8,30.04,North,355,0.0,2.0,45,0.00,,,0.00,0.0,meteohub,2013-09-30 09:30:00,
2013-09-30 02:35:00,59.2,37.9,30.04,North,355,0.0,2.0,45,0.00,,,0.00,0.0,meteohub,2013-09-30 09:35:00,
2013-09-30 02:40:00,59.0,38.3,30.04,North,355,0.0,2.0,46,0.00,,,0.00,0.0,meteohub,2013-09-30 09:40:00,
2013-09-30 02:45:00,58.8,38.1,30.04,North,355,0.0,1.0,46,0.00,,,0.00,0.0,meteohub,2013-09-30 09:45:00,
2013-09-30 02:50:00,58.6,38.5,30.04,North,355,0.0,1.0,47,0.00,,,0.00,0.0,meteohub,2013-09-30 09:50:00,
2013-09-30 02:55:00,58.5,38.3,30.04,North,355,0.0,0.0,47,0.00,,,0.00,0.0,meteohub,2013-09-30 09:55:00,
2013-09-30 03:00:00,58.3,38.7,30.04,North,355,0.0,0.0,48,0.00,,,0.00,0.0,meteohub,2013-09-30 10:00:00,
2013-09-30 03:05:00,57.7,38.7,30.04,North,355,0.0,0.0,49,0.00,,,0.00,0.0,meteohub,2013-09-30 10:05:00,
2013-09-30 03:10:00,57.6,38.5,30.04,North,355,0.0,0.0,49,0.00,,,0.00,0.0,meteohub,2013-09-30 10:10:00,
2013-09-30 03:15:00,57.6,38.5,30.04,North,355,1.0,0.0,49,0.00,,,0.00,0.0,meteohub,2013-09-30 10:15:00,
2013-09-30 03:20:00,57.6,38.5,30.04,North,355,0.0,1.0,49,0.00,,,0.00,0.0,meteohub,2013-09-30 10:20:00,
2013-09-30 03:25:00,57.6,38.5,30.04,North,355,1.0,1.0,49,0.00,,,0.00,0.0,meteohub,2013-09-30 10:25:00,
2013-09-30 03:30:00,57.4,38.8,30.04,North,355,0.0,2.0,50,0.00,,,0.00,0.0,meteohub,2013-09-30 10:30:00,
2013-09-30 03:35:00,57.0,38.5,30.04,North,355,1.0,2.0,50,0.00,,,0.00,0.0,meteohub,2013-09-30 10:35:00,
2013-09-30 03:40:00,56.7,38.3,30.04,North,355,1.0,2.0,50,0.00,,,0.00,0.0,meteohub,2013-09-30 10:40:00,
2013-09-30 03:45:00,56.7,38.7,30.04,North,355,1.0,2.0,51,0.00,,,0.00,0.0,meteohub,2013-09-30 10:45:00,
2013-09-30 03:51:00,56.5,38.7,30.04,North,355,0.0,2.0,51,0.00,,,0.00,0.0,meteohub,2013-09-30 10:51:00,
2013-09-30 03:56:00,56.5,38.7,30.04,North,355,0.0,1.0,51,0.00,,,0.00,0.0,meteohub,2013-09-30 10:56:00,
2013-09-30 04:01:00,56.7,38.3,30.04,North,355,0.0,2.0,50,0.00,,,0.00,0.0,meteohub,2013-09-30 11:01:00,
2013-09-30 04:06:00,56.7,38.7,30.03,North,355,1.0,2.0,51,0.00,,,0.00,0.0,meteohub,2013-09-30 11:06:00,
2013-09-30 04:11:00,56.5,38.7,30.03,North,355,1.0,2.0,51,0.00,,,0.00,0.0,meteohub,2013-09-30 11:11:00,
2013-09-30 04:16:00,56.3,38.5,30.03,North,355,1.0,2.0,51,0.00,,,0.00,0.0,meteohub,2013-09-30 11:16:00,
2013-09-30 04:21:00,56.1,38.3,30.03,North,355,1.0,2.0,51,0.00,,,0.00,0.0,meteohub,2013-09-30 11:21:00,
2013-09-30 04:26:00,55.9,38.1,30.03,North,355,1.0,2.0,51,0.00,,,0.00,0.0,meteohub,2013-09-30 11:26:00,
2013-09-30 04:31:00,56.1,38.7,30.03,North,355,0.0,2.0,52,0.00,,,0.00,0.0,meteohub,2013-09-30 11:31:00,
2013-09-30 04:36:00,55.9,38.5,30.03,North,355,0.0,2.0,52,0.00,,,0.00,0.0,meteohub,2013-09-30 11:36:00,
2013-09-30 04:41:00,55.8,37.9,30.03,North,355,0.0,1.0,51,0.00,,,0.00,0.0,meteohub,2013-09-30 11:41:00,
2013-09-30 04:46:00,55.6,38.3,30.04,North,355,0.0,1.0,52,0.00,,,0.00,0.0,meteohub,2013-09-30 11:46:00,
2013-09-30 04:51:00,55.6,39.2,30.04,North,355,0.0,1.0,54,0.00,,,0.00,0.0,meteohub,2013-09-30 11:51:00,
2013-09-30 04:56:00,55.4,38.5,30.04,North,355,0.0,1.0,53,0.00,,,0.00,0.0,meteohub,2013-09-30 11:56:00,
2013-09-30 05:01:00,55.2,38.8,30.04,North,355,0.0,1.0,54,0.00,,,0.00,0.0,meteohub,2013-09-30 12:01:00,
2013-09-30 05:06:00,55.0,38.7,30.04,North,355,0.0,1.0,54,0.00,,,0.00,0.0,meteohub,2013-09-30 12:06:00,
2013-09-30 05:11:00,54.9,38.5,30.04,North,355,0.0,0.0,54,0.00,,,0.00,0.0,meteohub,2013-09-30 12:11:00,
2013-09-30 05:16:00,54.9,39.0,30.04,North,355,0.0,0.0,55,0.00,,,0.00,0.0,meteohub,2013-09-30 12:16:00,
2013-09-30 05:21:00,54.7,38.8,30.04,North,355,1.0,1.0,55,0.00,,,0.00,0.0,meteohub,2013-09-30 12:21:00,
2013-09-30 05:26:00,54.3,37.9,30.04,North,355,0.0,1.0,54,0.00,,,0.00,0.0,meteohub,2013-09-30 12:26:00,
2013-09-30 05:31:00,54.1,38.8,30.05,North,355,0.0,1.0,56,0.00,,,0.00,0.0,meteohub,2013-09-30 12:31:00,
2013-09-30 05:36:00,54.0,38.7,30.05,North,355,1.0,2.0,56,0.00,,,0.00,0.0,meteohub,2013-09-30 12:36:00,
2013-09-30 05:41:00,54.0,38.7,30.05,North,355,0.0,2.0,56,0.00,,,0.00,0.0,meteohub,2013-09-30 12:41:00,
2013-09-30 05:46:00,53.8,38.5,30.05,North,355,0.0,2.0,56,0.00,,,0.00,0.0,meteohub,2013-09-30 12:46:00,
2013-09-30 05:51:00,54.0,38.7,30.05,North,355,0.0,2.0,56,0.00,,,0.00,0.0,meteohub,2013-09-30 12:51:00,
2013-09-30 05:56:00,54.0,38.7,30.05,North,355,0.0,1.0,56,0.00,,,0.00,0.0,meteohub,2013-09-30 12:56:00,
2013-09-30 06:01:00,53.8,38.5,30.05,North,355,0.0,1.0,56,0.00,,,0.00,0.0,meteohub,2013-09-30 13:01:00,
2013-09-30 06:06:00,53.6,38.3,30.05,North,355,1.0,0.0,56,0.00,,,0.00,0.0,meteohub,2013-09-30 13:06:00,
2013-09-30 06:11:00,53.4,38.5,30.05,North,355,0.0,1.0,57,0.00,,,0.00,0.0,meteohub,2013-09-30 13:11:00,
2013-09-30 06:16:00,53.1,38.3,30.05,North,355,0.0,1.0,57,0.00,,,0.00,5.0,meteohub,2013-09-30 13:16:00,
2013-09-30 06:21:00,53.1,38.3,30.05,North,355,0.0,1.0,57,0.00,,,0.00,9.0,meteohub,2013-09-30 13:21:00,
2013-09-30 06:26:00,53.1,37.8,30.05,North,355,0.0,1.0,56,0.00,,,0.00,11.0,meteohub,2013-09-30 13:26:00,
2013-09-30 06:31:00,53.6,38.3,30.05,North,355,1.0,2.0,56,0.00,,,0.00,12.0,meteohub,2013-09-30 13:31:00,
2013-09-30 06:36:00,53.8,38.5,30.05,North,355,0.0,2.0,56,0.00,,,0.00,16.0,meteohub,2013-09-30 13:36:00,
2013-09-30 06:41:00,53.8,38.5,30.05,North,355,0.0,2.0,56,0.00,,,0.00,28.0,meteohub,2013-09-30 13:41:00,
2013-09-30 06:46:00,54.1,38.8,30.05,North,355,0.0,2.0,56,0.00,,,0.00,40.0,meteohub,2013-09-30 13:46:00,
2013-09-30 06:51:00,54.5,39.2,30.05,North,355,0.0,2.0,56,0.00,,,0.00,54.0,meteohub,2013-09-30 13:51:00,
2013-09-30 06:57:00,55.2,39.7,30.05,North,355,1.0,1.0,56,0.00,,,0.00,72.0,meteohub,2013-09-30 13:57:00,
2013-09-30 07:02:00,56.1,40.1,30.06,North,355,0.0,1.0,55,0.00,,,0.00,91.0,meteohub,2013-09-30 14:02:00,
2013-09-30 07:07:00,57.6,40.1,30.06,North,355,0.0,1.0,52,0.00,,,0.00,113.0,meteohub,2013-09-30 14:07:00,
2013-09-30 07:12:00,59.0,40.8,30.06,North,355,1.0,1.0,51,0.00,,,0.00,132.0,meteohub,2013-09-30 14:12:00,
2013-09-30 07:17:00,60.3,41.0,30.06,North,355,0.0,1.0,49,0.00,,,0.00,155.0,meteohub,2013-09-30 14:17:00,
2013-09-30 07:22:00,61.5,41.7,30.06,North,355,1.0,1.0,48,0.00,,,0.00,179.0,meteohub,2013-09-30 14:22:00,
2013-09-30 07:27:00,62.4,41.4,30.06,North,355,0.0,2.0,46,0.00,,,0.00,200.0,meteohub,2013-09-30 14:27:00,
2013-09-30 07:32:00,63.7,40.8,30.06,North,355,1.0,2.0,43,0.00,,,0.00,220.0,meteohub,2013-09-30 14:32:00,
2013-09-30 07:37:00,64.8,40.5,30.06,North,355,1.0,2.0,41,0.00,,,0.00,237.0,meteohub,2013-09-30 14:37:00,
2013-09-30 07:42:00,65.5,40.5,30.06,ESE,117,2.0,2.0,40,0.00,,,0.00,257.0,meteohub,2013-09-30 14:42:00,
2013-09-30 07:47:00,66.0,40.3,30.06,ESE,114,2.0,3.0,39,0.00,,,0.00,271.0,meteohub,2013-09-30 14:47:00,
2013-09-30 07:52:00,66.6,40.8,30.06,ESE,114,1.0,3.0,39,0.00,,,0.00,290.0,meteohub,2013-09-30 14:52:00,
2013-09-30 07:57:00,67.5,41.7,30.06,ESE,114,0.0,3.0,39,0.00,,,0.00,308.0,meteohub,2013-09-30 14:57:00,
2013-09-30 08:02:00,68.5,41.9,30.06,ESE,114,0.0,3.0,38,0.00,,,0.00,327.0,meteohub,2013-09-30 15:02:00,
2013-09-30 08:07:00,69.4,41.4,30.06,ESE,114,2.0,2.0,36,0.00,,,0.00,345.0,meteohub,2013-09-30 15:07:00,
2013-09-30 08:12:00,70.3,41.4,30.06,ESE,114,0.0,2.0,35,0.00,,,0.00,364.0,meteohub,2013-09-30 15:12:00,
2013-09-30 08:17:00,71.1,41.4,30.06,ESE,114,0.0,2.0,34,0.00,,,0.00,381.0,meteohub,2013-09-30 15:17:00,
2013-09-30 08:22:00,72.0,40.5,30.06,ESE,114,0.0,2.0,32,0.00,,,0.00,396.0,meteohub,2013-09-30 15:22:00,
2013-09-30 08:27:00,72.7,40.3,30.06,ESE,114,0.0,2.0,31,0.00,,,0.00,415.0,meteohub,2013-09-30 15:27:00,
2013-09-30 08:32:00,73.6,41.0,30.06,ESE,114,0.0,2.0,31,0.00,,,0.00,432.0,meteohub,2013-09-30 15:32:00,
2013-09-30 08:37:00,73.8,40.5,30.07,ESE,116,0.0,2.0,30,0.00,,,0.00,450.0,meteohub,2013-09-30 15:37:00,
2013-09-30 08:42:00,73.9,39.7,30.07,SSW,192,2.0,2.0,29,0.00,,,0.00,468.0,meteohub,2013-09-30 15:42:00,
2013-09-30 08:47:00,73.9,39.7,30.07,SSW,196,0.0,3.0,29,0.00,,,0.00,483.0,meteohub,2013-09-30 15:47:00,
2013-09-30 08:52:00,74.5,39.2,30.07,WSW,254,0.0,3.0,28,0.00,,,0.00,497.0,meteohub,2013-09-30 15:52:00,
2013-09-30 08:57:00,74.8,39.6,30.07,WNW,289,2.0,3.0,28,0.00,,,0.00,513.0,meteohub,2013-09-30 15:57:00,
2013-09-30 09:02:00,75.4,40.1,30.06,West,276,2.0,3.0,28,0.00,,,0.00,529.0,meteohub,2013-09-30 16:02:00,
2013-09-30 09:07:00,75.7,38.5,30.06,West,269,3.0,3.0,26,0.00,,,0.00,545.0,meteohub,2013-09-30 16:07:00,
2013-09-30 09:12:00,76.3,38.8,30.06,WNW,282,2.0,4.0,26,0.00,,,0.00,559.0,meteohub,2013-09-30 16:12:00,
2013-09-30 09:17:00,76.6,38.1,30.06,West,266,2.0,5.0,25,0.00,,,0.00,577.0,meteohub,2013-09-30 16:17:00,
2013-09-30 09:22:00,76.8,38.3,30.06,WSW,257,4.0,5.0,25,0.00,,,0.00,591.0,meteohub,2013-09-30 16:22:00,
2013-09-30 09:27:00,77.2,37.6,30.06,West,259,2.0,5.0,24,0.00,,,0.00,606.0,meteohub,2013-09-30 16:27:00,
2013-09-30 09:32:00,77.5,37.9,30.06,SSW,196,2.0,4.0,24,0.00,,,0.00,617.0,meteohub,2013-09-30 16:32:00,
2013-09-30 09:37:00,77.7,37.0,30.06,West,276,2.0,4.0,23,0.00,,,0.00,631.0,meteohub,2013-09-30 16:37:00,
2013-09-30 09:42:00,78.1,38.3,30.06,WSW,254,2.0,4.0,24,0.00,,,0.00,645.0,meteohub,2013-09-30 16:42:00,
2013-09-30 09:47:00,78.3,38.5,30.06,WNW,302,2.0,4.0,24,0.00,,,0.00,659.0,meteohub,2013-09-30 16:47:00,
2013-09-30 09:52:00,78.6,37.8,30.06,SW,222,1.0,5.0,23,0.00,,,0.00,673.0,meteohub,2013-09-30 16:52:00,
2013-09-30 09:57:00,78.8,37.9,30.06,NW,305,2.0,5.0,23,0.00,,,0.00,684.0,meteohub,2013-09-30 16:57:00,
2013-09-30 10:02:00,79.0,37.9,30.06,SW,215,4.0,5.0,23,0.00,,,0.00,694.0,meteohub,2013-09-30 17:02:00,
2013-09-30 10:07:00,79.2,39.2,30.06,SSE,154,1.0,6.0,24,0.00,,,0.00,707.0,meteohub,2013-09-30 17:07:00,
2013-09-30 10:12:00,79.9,38.8,30.06,WSW,245,4.0,6.0,23,0.00,,,0.00,719.0,meteohub,2013-09-30 17:12:00,
2013-09-30 10:17:00,80.4,38.1,30.06,West,264,2.0,6.0,22,0.00,,,0.00,729.0,meteohub,2013-09-30 17:17:00,
2013-09-30 10:22:00,80.8,38.5,30.05,SSW,192,2.0,4.0,22,0.00,,,0.00,742.0,meteohub,2013-09-30 17:22:00,
2013-09-30 10:27:00,81.3,38.8,30.05,West,267,2.0,4.0,22,0.00,,,0.00,751.0,meteohub,2013-09-30 17:27:00,
2013-09-30 10:32:00,81.9,38.1,30.05,South,188,2.0,5.0,21,0.00,,,0.00,759.0,meteohub,2013-09-30 17:32:00,
2013-09-30 10:37:00,82.2,38.5,30.05,SW,234,3.0,5.0,21,0.00,,,0.00,768.0,meteohub,2013-09-30 17:37:00,
2013-09-30 10:42:00,82.2,37.2,30.05,SSW,198,4.0,5.0,20,0.00,,,0.00,779.0,meteohub,2013-09-30 17:42:00,
2013-09-30 10:47:00,82.2,38.5,30.05,SW,215,2.0,6.0,21,0.00,,,0.00,788.0,meteohub,2013-09-30 17:47:00,
2013-09-30 10:52:00,82.6,38.7,30.05,SW,226,4.0,7.0,21,0.00,,,0.00,798.0,meteohub,2013-09-30 17:52:00,
2013-09-30 10:57:00,82.6,37.4,30.05,WSW,249,2.0,7.0,20,0.00,,,0.00,802.0,meteohub,2013-09-30 17:57:00,
2013-09-30 11:02:00,82.8,37.6,30.05,SW,232,2.0,7.0,20,0.00,,,0.00,810.0,meteohub,2013-09-30 18:02:00,
2013-09-30 11:07:00,83.5,39.4,30.04,South,186,2.0,6.0,21,0.00,,,0.00,816.0,meteohub,2013-09-30 18:07:00,
2013-09-30 11:12:00,84.0,37.4,30.04,SW,227,1.0,5.0,19,0.00,,,0.00,821.0,meteohub,2013-09-30 18:12:00,
2013-09-30 11:17:00,84.0,37.4,30.04,SSW,207,2.0,6.0,19,0.00,,,0.00,828.0,meteohub,2013-09-30 18:17:00,
2013-09-30 11:22:00,84.6,37.8,30.04,SSE,151,2.0,6.0,19,0.00,,,0.00,835.0,meteohub,2013-09-30 18:22:00,
2013-09-30 11:27:00,84.7,37.9,30.04,SSW,198,4.0,6.0,19,0.00,,,0.00,838.0,meteohub,2013-09-30 18:27:00,
2013-09-30 11:32:00,85.3,37.0,30.04,SSW,208,3.0,6.0,18,0.00,,,0.00,842.0,meteohub,2013-09-30 18:32:00,
2013-09-30 11:37:00,85.1,38.1,30.04,NW,320,1.0,6.0,19,0.00,,,0.00,846.0,meteohub,2013-09-30 18:37:00,
2013-09-30 11:42:00,85.8,37.4,30.04,SW,214,2.0,4.0,18,0.00,,,0.00,849.0,meteohub,2013-09-30 18:42:00,
2013-09-30 11:47:00,86.0,37.6,30.03,SW,226,2.0,6.0,18,0.00,,,0.00,853.0,meteohub,2013-09-30 18:47:00,
2013-09-30 11:52:00,86.2,37.8,30.03,West,263,3.0,6.0,18,0.00,,,0.00,856.0,meteohub,2013-09-30 18:52:00,
2013-09-30 11:57:00,86.4,37.9,30.03,West,261,8.0,8.0,18,0.00,,,0.00,860.0,meteohub,2013-09-30 18:57:00,
2013-09-30 12:02:00,86.7,36.7,30.02,West,273,3.0,9.0,17,0.00,,,0.00,860.0,meteohub,2013-09-30 19:02:00,
2013-09-30 12:07:00,86.9,36.9,30.02,SW,214,3.0,10.0,17,0.00,,,0.00,863.0,meteohub,2013-09-30 19:07:00,
2013-09-30 12:12:00,87.3,35.6,30.02,WSW,255,2.0,10.0,16,0.00,,,0.00,865.0,meteohub,2013-09-30 19:12:00,
2013-09-30 12:17:00,87.4,32.4,30.01,West,267,3.0,10.0,14,0.00,,,0.00,863.0,meteohub,2013-09-30 19:17:00,
2013-09-30 12:22:00,87.6,36.0,30.01,SSW,192,1.0,7.0,16,0.00,,,0.00,861.0,meteohub,2013-09-30 19:22:00,
2013-09-30 12:27:00,88.0,34.5,30.01,SW,228,2.0,7.0,15,0.00,,,0.00,860.0,meteohub,2013-09-30 19:27:00,
2013-09-30 12:32:00,88.3,34.9,30.00,WSW,246,4.0,7.0,15,0.00,,,0.00,858.0,meteohub,2013-09-30 19:32:00,
2013-09-30 12:37:00,88.3,34.9,30.00,WSW,244,2.0,7.0,15,0.00,,,0.00,856.0,meteohub,2013-09-30 19:37:00,
2013-09-30 12:42:00,88.3,34.9,30.00,SE,135,4.0,8.0,15,0.00,,,0.00,858.0,meteohub,2013-09-30 19:42:00,
2013-09-30 12:47:00,88.7,35.1,29.99,South,184,1.0,8.0,15,0.00,,,0.00,856.0,meteohub,2013-09-30 19:47:00,
2013-09-30 12:52:00,89.4,34.0,29.99,West,275,3.0,9.0,14,0.00,,,0.00,851.0,meteohub,2013-09-30 19:52:00,
2013-09-30 12:57:00,89.8,34.2,29.99,SW,221,2.0,9.0,14,0.00,,,0.00,847.0,meteohub,2013-09-30 19:57:00,
2013-09-30 13:02:00,89.6,34.2,29.99,SW,216,3.0,6.0,14,0.00,,,0.00,846.0,meteohub,2013-09-30 20:02:00,
2013-09-30 13:07:00,89.2,33.8,29.98,SW,214,2.0,10.0,14,0.00,,,0.00,838.0,meteohub,2013-09-30 20:07:00,
2013-09-30 13:12:00,89.2,33.8,29.99,WSW,252,0.0,10.0,14,0.00,,,0.00,835.0,meteohub,2013-09-30 20:12:00,
2013-09-30 13:17:00,89.6,34.2,29.98,WSW,250,5.0,9.0,14,0.00,,,0.00,830.0,meteohub,2013-09-30 20:17:00,
2013-09-30 13:22:00,89.6,32.2,29.98,SW,222,2.0,10.0,13,0.00,,,0.00,824.0,meteohub,2013-09-30 20:22:00,
2013-09-30 13:27:00,89.6,34.2,29.98,South,191,4.0,10.0,14,0.00,,,0.00,817.0,meteohub,2013-09-30 20:27:00,
2013-09-30 13:32:00,90.0,32.5,29.97,WNW,288,2.0,11.0,13,0.00,,,0.00,810.0,meteohub,2013-09-30 20:32:00,
2013-09-30 13:37:00,90.1,32.7,29.97,SSE,157,1.0,11.0,13,0.00,,,0.00,805.0,meteohub,2013-09-30 20:37:00,
2013-09-30 13:42:00,90.3,32.9,29.97,SSW,202,3.0,11.0,13,0.00,,,0.00,798.0,meteohub,2013-09-30 20:42:00,
2013-09-30 13:48:00,90.7,33.1,29.97,SW,223,3.0,9.0,13,0.00,,,0.00,789.0,meteohub,2013-09-30 20:48:00,
2013-09-30 13:53:00,90.3,32.9,29.97,WNW,302,3.0,8.0,13,0.00,,,0.00,780.0,meteohub,2013-09-30 20:53:00,
2013-09-30 13:58:00,90.3,32.9,29.96,NW,323,0.0,8.0,13,0.00,,,0.00,772.0,meteohub,2013-09-30 20:58:00,
2013-09-30 14:03:00,90.7,33.1,29.96,SW,236,7.0,8.0,13,0.00,,,0.00,763.0,meteohub,2013-09-30 21:03:00,
2013-09-30 14:08:00,90.3,32.9,29.96,NNW,333,7.0,8.0,13,0.00,,,0.00,754.0,meteohub,2013-09-30 21:08:00,
2013-09-30 14:13:00,90.3,30.7,29.96,WSW,248,4.0,8.0,12,0.00,,,0.00,744.0,meteohub,2013-09-30 21:13:00,
2013-09-30 14:18:00,90.5,30.9,29.96,West,270,4.0,9.0,12,0.00,,,0.00,733.0,meteohub,2013-09-30 21:18:00,
2013-09-30 14:23:00,90.9,29.1,29.96,West,261,1.0,9.0,11,0.00,,,0.00,724.0,meteohub,2013-09-30 21:23:00,
2013-09-30 14:28:00,91.2,27.1,29.96,WSW,246,5.0,11.0,10,0.00,,,0.00,715.0,meteohub,2013-09-30 21:28:00,
2013-09-30 14:33:00,91.6,27.3,29.95,WSW,242,3.0,11.0,10,0.00,,,0.00,705.0,meteohub,2013-09-30 21:33:00,
2013-09-30 14:38:00,91.0,24.4,29.95,SSW,213,6.0,11.0,9,0.00,,,0.00,693.0,meteohub,2013-09-30 21:38:00,
2013-09-30 14:43:00,91.0,24.4,29.95,SW,226,4.0,9.0,9,0.00,,,0.00,680.0,meteohub,2013-09-30 21:43:00,
2013-09-30 14:48:00,91.0,24.4,29.95,South,185,4.0,10.0,9,0.00,,,0.00,668.0,meteohub,2013-09-30 21:48:00,
2013-09-30 14:53:00,90.9,24.3,29.95,WSW,240,4.0,10.0,9,0.00,,,0.00,654.0,meteohub,2013-09-30 21:53:00,
2013-09-30 14:58:00,91.0,24.4,29.94,WSW,256,8.0,9.0,9,0.00,,,0.00,642.0,meteohub,2013-09-30 21:58:00,
2013-09-30 15:03:00,91.4,24.6,29.94,SW,224,4.0,9.0,9,0.00,,,0.00,624.0,meteohub,2013-09-30 22:03:00,
2013-09-30 15:08:00,91.8,27.5,29.94,SSW,196,4.0,8.0,10,0.00,,,0.00,610.0,meteohub,2013-09-30 22:08:00,
2013-09-30 15:13:00,91.8,25.0,29.94,WSW,242,3.0,8.0,9,0.00,,,0.00,596.0,meteohub,2013-09-30 22:13:00,
2013-09-30 15:18:00,91.6,24.8,29.94,SSW,192,5.0,7.0,9,0.00,,,0.00,584.0,meteohub,2013-09-30 22:18:00,
2013-09-30 15:23:00,91.4,24.6,29.94,WSW,246,5.0,7.0,9,0.00,,,0.00,568.0,meteohub,2013-09-30 22:23:00,
2013-09-30 15:28:00,91.0,24.4,29.94,SW,225,2.0,7.0,9,0.00,,,0.00,550.0,meteohub,2013-09-30 22:28:00,
2013-09-30 15:33:00,91.2,24.4,29.94,SW,221,5.0,9.0,9,0.00,,,0.00,536.0,meteohub,2013-09-30 22:33:00,
2013-09-30 15:39:00,91.6,24.8,29.94,West,262,6.0,9.0,9,0.00,,,0.00,519.0,meteohub,2013-09-30 22:39:00,
2013-09-30 15:44:00,91.8,25.0,29.94,South,186,7.0,7.0,9,0.00,,,0.00,503.0,meteohub,2013-09-30 22:44:00,
2013-09-30 15:49:00,91.6,24.8,29.94,SW,229,7.0,8.0,9,0.00,,,0.00,485.0,meteohub,2013-09-30 22:49:00,
2013-09-30 15:54:00,91.0,27.0,29.93,WSW,256,5.0,8.0,10,0.00,,,0.00,469.0,meteohub,2013-09-30 22:54:00,
2013-09-30 15:59:00,90.9,26.8,29.93,WSW,251,5.0,7.0,10,0.00,,,0.00,452.0,meteohub,2013-09-30 22:59:00,
2013-09-30 16:04:00,90.7,26.6,29.93,SW,216,4.0,8.0,10,0.00,,,0.00,434.0,meteohub,2013-09-30 23:04:00,
2013-09-30 16:09:00,90.7,26.6,29.93,SSW,209,5.0,10.0,10,0.00,,,0.00,418.0,meteohub,2013-09-30 23:09:00,
2013-09-30 16:14:00,90.5,26.6,29.93,SW,226,5.0,10.0,10,0.00,,,0.00,401.0,meteohub,2013-09-30 23:14:00,
2013-09-30 16:19:00,90.3,28.8,29.93,SW,223,4.0,10.0,11,0.00,,,0.00,383.0,meteohub,2013-09-30 23:19:00,
2013-09-30 16:24:00,90.5,28.8,29.93,SW,215,7.0,8.0,11,0.00,,,0.00,366.0,meteohub,2013-09-30 23:24:00,
2013-09-30 16:29:00,90.1,28.6,29.93,WSW,257,3.0,9.0,11,0.00,,,0.00,346.0,meteohub,2013-09-30 23:29:00,
2013-09-30 16:34:00,90.1,28.6,29.93,WSW,252,5.0,9.0,11,0.00,,,0.00,327.0,meteohub,2013-09-30 23:34:00,
2013-09-30 16:39:00,90.1,28.6,29.93,South,188,4.0,9.0,11,0.00,,,0.00,309.0,meteohub,2013-09-30 23:39:00,
2013-09-30 16:44:00,90.3,28.8,29.93,West,269,6.0,9.0,11,0.00,,,0.00,294.0,meteohub,2013-09-30 23:44:00,
2013-09-30 16:49:00,90.1,28.6,29.93,WSW,254,6.0,9.0,11,0.00,,,0.00,271.0,meteohub,2013-09-30 23:49:00,
2013-09-30 16:54:00,89.8,28.2,29.93,West,261,7.0,9.0,11,0.00,,,0.00,248.0,meteohub,2013-09-30 23:54:00,
2013-09-30 16:59:00,89.4,28.0,29.93,West,260,4.0,10.0,11,0.00,,,0.00,223.0,meteohub,2013-09-30 23:59:00,
2013-09-30 17:04:00,89.2,27.9,29.93,SW,221,5.0,10.0,11,0.00,,,0.00,199.0,meteohub,2013-10-01 00:04:00,
2013-09-30 17:09:00,89.1,27.7,29.93,WNW,285,5.0,10.0,11,0.00,,,0.00,176.0,meteohub,2013-10-01 00:09:00,
2013-09-30 17:14:00,88.5,27.3,29.93,WSW,256,5.0,8.0,11,0.00,,,0.00,160.0,meteohub,2013-10-01 00:14:00,
2013-09-30 17:19:00,88.5,27.3,29.93,West,260,3.0,10.0,11,0.00,,,0.00,128.0,meteohub,2013-10-01 00:19:00,
2013-09-30 17:24:00,88.5,25.0,29.93,West,277,5.0,10.0,10,0.00,,,0.00,111.0,meteohub,2013-10-01 00:24:00,
2013-09-30 17:29:00,88.2,24.8,29.93,West,273,3.0,10.0,10,0.00,,,0.00,90.0,meteohub,2013-10-01 00:29:00,
2013-09-30 17:34:00,88.0,24.6,29.92,West,281,2.0,8.0,10,0.00,,,0.00,74.0,meteohub,2013-10-01 00:34:00,
2013-09-30 17:39:00,87.8,26.8,29.92,West,261,4.0,8.0,11,0.00,,,0.00,56.0,meteohub,2013-10-01 00:39:00,
2013-09-30 17:44:00,87.6,24.3,29.92,West,262,2.0,7.0,10,0.00,,,0.00,37.0,meteohub,2013-10-01 00:44:00,
2013-09-30 17:49:00,87.4,24.3,29.92,West,261,3.0,6.0,10,0.00,,,0.00,25.0,meteohub,2013-10-01 00:49:00,
2013-09-30 17:54:00,87.1,23.9,29.92,West,277,2.0,5.0,10,0.00,,,0.00,16.0,meteohub,2013-10-01 00:54:00,
2013-09-30 17:59:00,86.4,23.4,29.92,West,263,3.0,6.0,10,0.00,,,0.00,11.0,meteohub,2013-10-01 00:59:00,
2013-09-30 18:04:00,85.8,23.0,29.92,WSW,248,1.0,6.0,10,0.00,,,0.00,9.0,meteohub,2013-10-01 01:04:00,
2013-09-30 18:09:00,84.9,24.6,29.92,WSW,248,1.0,6.0,11,0.00,,,0.00,5.0,meteohub,2013-10-01 01:09:00,
2013-09-30 18:14:00,84.4,24.1,29.92,WSW,248,1.0,4.0,11,0.00,,,0.00,0.0,meteohub,2013-10-01 01:14:00,
2013-09-30 18:19:00,83.7,25.7,29.92,WSW,248,0.0,3.0,12,0.00,,,0.00,0.0,meteohub,2013-10-01 01:19:00,
2013-09-30 18:24:00,83.1,25.3,29.92,WSW,248,0.0,3.0,12,0.00,,,0.00,0.0,meteohub,2013-10-01 01:24:00,
2013-09-30 18:29:00,82.2,26.4,29.93,WSW,248,0.0,1.0,13,0.00,,,0.00,0.0,meteohub,2013-10-01 01:29:00,
2013-09-30 18:34:00,81.1,27.5,29.93,WSW,248,0.0,1.0,14,0.00,,,0.00,0.0,meteohub,2013-10-01 01:34:00,
2013-09-30 18:39:00,79.9,28.0,29.93,WSW,248,0.0,1.0,15,0.00,,,0.00,0.0,meteohub,2013-10-01 01:39:00,
2013-09-30 18:44:00,78.6,28.8,29.93,WSW,248,0.0,1.0,16,0.00,,,0.00,0.0,meteohub,2013-10-01 01:44:00,
2013-09-30 18:49:00,77.7,27.9,29.93,WSW,248,0.0,1.0,16,0.00,,,0.00,0.0,meteohub,2013-10-01 01:49:00,
2013-09-30 18:54:00,77.4,26.1,29.93,WSW,248,2.0,2.0,15,0.00,,,0.00,0.0,meteohub,2013-10-01 01:54:00,
2013-09-30 18:59:00,76.8,28.8,29.93,WSW,248,2.0,2.0,17,0.00,,,0.00,0.0,meteohub,2013-10-01 01:59:00,
2013-09-30 19:04:00,76.3,28.2,29.93,NW,325,0.0,3.0,17,0.00,,,0.00,0.0,meteohub,2013-10-01 02:04:00,
2013-09-30 19:10:00,75.6,26.2,29.93,NW,325,0.0,3.0,16,0.00,,,0.00,0.0,meteohub,2013-10-01 02:10:00,
2013-09-30 19:15:00,75.4,27.5,29.93,NW,325,0.0,2.0,17,0.00,,,0.00,0.0,meteohub,2013-10-01 02:15:00,
2013-09-30 19:20:00,75.2,27.3,29.93,NW,325,0.0,2.0,17,0.00,,,0.00,0.0,meteohub,2013-10-01 02:20:00,
2013-09-30 19:25:00,74.8,28.4,29.94,NW,325,0.0,2.0,18,0.00,,,0.00,0.0,meteohub,2013-10-01 02:25:00,
2013-09-30 19:30:00,74.5,28.2,29.94,NW,325,0.0,2.0,18,0.00,,,0.00,0.0,meteohub,2013-10-01 02:30:00,
2013-09-30 19:35:00,74.1,27.9,29.94,NNW,331,0.0,1.0,18,0.00,,,0.00,0.0,meteohub,2013-10-01 02:35:00,
2013-09-30 19:40:00,73.8,27.7,29.94,NNW,331,1.0,2.0,18,0.00,,,0.00,0.0,meteohub,2013-10-01 02:40:00,
2013-09-30 19:45:00,73.4,27.3,29.94,NNW,331,0.0,2.0,18,0.00,,,0.00,0.0,meteohub,2013-10-01 02:45:00,
2013-09-30 19:50:00,73.0,28.4,29.94,NNW,331,0.0,2.0,19,0.00,,,0.00,0.0,meteohub,2013-10-01 02:50:00,
2013-09-30 19:55:00,72.9,28.2,29.95,NNW,331,0.0,1.0,19,0.00,,,0.00,0.0,meteohub,2013-10-01 02:55:00,
2013-09-30 20:00:00,72.3,28.9,29.95,NNW,331,0.0,1.0,20,0.00,,,0.00,0.0,meteohub,2013-10-01 03:00:00,
2013-09-30 20:05:00,72.0,28.8,29.95,NNW,331,0.0,1.0,20,0.00,,,0.00,0.0,meteohub,2013-10-01 03:05:00,
2013-09-30 20:10:00,71.4,29.5,29.95,NNW,331,1.0,1.0,21,0.00,,,0.00,0.0,meteohub,2013-10-01 03:10:00,
2013-09-30 20:15:00,70.9,28.9,29.95,NNW,331,0.0,1.0,21,0.00,,,0.00,0.0,meteohub,2013-10-01 03:15:00,
2013-09-30 20:20:00,70.2,28.4,29.96,NNW,331,0.0,1.0,21,0.00,,,0.00,0.0,meteohub,2013-10-01 03:20:00,
2013-09-30 20:25:00,69.4,28.9,29.96,NNW,331,0.0,1.0,22,0.00,,,0.00,0.0,meteohub,2013-10-01 03:25:00,
2013-09-30 20:30:00,68.7,29.5,29.96,NNW,331,1.0,1.0,23,0.00,,,0.00,0.0,meteohub,2013-10-01 03:30:00,
2013-09-30 20:35:00,68.4,28.0,29.96,NNW,331,0.0,1.0,22,0.00,,,0.00,0.0,meteohub,2013-10-01 03:35:00,
2013-09-30 20:40:00,68.0,28.8,29.96,NNW,331,0.0,1.0,23,0.00,,,0.00,0.0,meteohub,2013-10-01 03:40:00,
2013-09-30 20:45:00,67.6,29.5,29.96,NNW,331,0.0,2.0,24,0.00,,,0.00,0.0,meteohub,2013-10-01 03:45:00,
2013-09-30 20:50:00,67.3,29.3,29.96,NNW,331,0.0,2.0,24,0.00,,,0.00,0.0,meteohub,2013-10-01 03:50:00,
2013-09-30 20:55:00,66.9,30.0,29.96,NNW,331,0.0,2.0,25,0.00,,,0.00,0.0,meteohub,2013-10-01 03:55:00,
2013-09-30 21:00:00,66.6,28.6,29.96,NNW,331,0.0,1.0,24,0.00,,,0.00,0.0,meteohub,2013-10-01 04:00:00,
2013-09-30 21:01:00,66.6,28.6,29.96,NNW,331,0.0,1.0,24,0.00,,,0.00,0.0,meteohub,2013-10-01 04:01:00,
2013-09-30 21:02:00,66.4,29.5,29.97,NNW,331,0.0,1.0,25,0.00,,,0.00,0.0,meteohub,2013-10-01 04:02:00,
2013-09-30 21:04:00,66.4,28.4,29.97,NNW,331,0.0,1.0,24,0.00,,,0.00,0.0,meteohub,2013-10-01 04:04:00,
2013-09-30 21:09:00,65.8,28.9,29.97,NNW,331,0.0,1.0,25,0.00,,,0.00,0.0,meteohub,2013-10-01 04:09:00,
2013-09-30 21:14:00,65.5,28.8,29.97,NNW,331,1.0,1.0,25,0.00,,,0.00,0.0,meteohub,2013-10-01 04:14:00,
2013-09-30 21:19:00,65.3,29.5,29.97,NNW,331,0.0,1.0,26,0.00,,,0.00,0.0,meteohub,2013-10-01 04:19:00,
2013-09-30 21:24:00,65.1,29.3,29.97,NNW,331,0.0,1.0,26,0.00,,,0.00,0.0,meteohub,2013-10-01 04:24:00,
2013-09-30 21:29:00,64.9,29.3,29.97,NNW,331,0.0,1.0,26,0.00,,,0.00,0.0,meteohub,2013-10-01 04:29:00,
2013-09-30 21:34:00,64.9,29.3,29.97,NNW,331,0.0,1.0,26,0.00,,,0.00,0.0,meteohub,2013-10-01 04:34:00,
2013-09-30 21:39:00,64.6,28.9,29.97,NNW,331,1.0,1.0,26,0.00,,,0.00,0.0,meteohub,2013-10-01 04:39:00,
2013-09-30 21:44:00,64.4,29.7,29.97,NNW,331,0.0,2.0,27,0.00,,,0.00,0.0,meteohub,2013-10-01 04:44:00,
2013-09-30 21:49:00,64.0,28.4,29.97,NNW,331,0.0,2.0,26,0.00,,,0.00,0.0,meteohub,2013-10-01 04:49:00,
2013-09-30 21:54:00,63.9,29.3,29.97,NNW,331,0.0,2.0,27,0.00,,,0.00,0.0,meteohub,2013-10-01 04:54:00,
2013-09-30 22:00:00,63.5,29.8,29.97,NNW,331,0.0,1.0,28,0.00,,,0.00,0.0,meteohub,2013-10-01 05:00:00,
2013-09-30 22:05:00,63.1,29.5,29.97,NNW,331,0.0,0.0,28,0.00,,,0.00,0.0,meteohub,2013-10-01 05:05:00,
2013-09-30 22:10:00,63.1,29.5,29.97,NNW,331,0.0,1.0,28,0.00,,,0.00,0.0,meteohub,2013-10-01 05:10:00,
2013-09-30 22:15:00,62.8,29.1,29.97,NNW,331,1.0,1.0,28,0.00,,,0.00,0.0,meteohub,2013-10-01 05:15:00,
2013-09-30 22:20:00,62.4,28.9,29.97,NNW,331,0.0,2.0,28,0.00,,,0.00,0.0,meteohub,2013-10-01 05:20:00,
2013-09-30 22:25:00,62.2,29.7,29.97,NNW,331,1.0,2.0,29,0.00,,,0.00,0.0,meteohub,2013-10-01 05:25:00,
2013-09-30 22:30:00,62.1,29.5,29.97,NNW,331,0.0,2.0,29,0.00,,,0.00,0.0,meteohub,2013-10-01 05:30:00,
2013-09-30 22:35:00,61.9,29.3,29.97,NNW,331,0.0,1.0,29,0.00,,,0.00,0.0,meteohub,2013-10-01 05:35:00,
2013-09-30 22:40:00,61.9,30.0,29.97,NNW,331,0.0,1.0,30,0.00,,,0.00,0.0,meteohub,2013-10-01 05:40:00,
2013-09-30 22:46:00,61.5,29.8,29.97,NNW,331,0.0,1.0,30,0.00,,,0.00,0.0,meteohub,2013-10-01 05:46:00,
2013-09-30 22:51:00,61.3,29.7,29.97,NNW,331,0.0,1.0,30,0.00,,,0.00,0.0,meteohub,2013-10-01 05:51:00,
2013-09-30 22:56:00,61.3,28.8,29.97,NNW,331,0.0,2.0,29,0.00,,,0.00,0.0,meteohub,2013-10-01 05:56:00,
2013-09-30 23:01:00,61.5,28.9,29.97,NNW,331,1.0,2.0,29,0.00,,,0.00,0.0,meteohub,2013-10-01 06:01:00,
2013-09-30 23:06:00,62.2,29.7,29.98,NNW,331,1.0,2.0,29,0.00,,,0.00,0.0,meteohub,2013-10-01 06:06:00,
2013-09-30 23:11:00,62.8,29.1,29.98,NNW,331,0.0,3.0,28,0.00,,,0.00,0.0,meteohub,2013-10-01 06:11:00,
2013-09-30 23:16:00,63.0,29.3,29.98,NNW,331,0.0,3.0,28,0.00,,,0.00,0.0,meteohub,2013-10-01 06:16:00,
2013-09-30 23:21:00,63.0,29.3,29.98,NNW,331,0.0,2.0,28,0.00,,,0.00,0.0,meteohub,2013-10-01 06:21:00,
2013-09-30 23:26:00,62.8,29.1,29.98,NNW,331,0.0,2.0,28,0.00,,,0.00,0.0,meteohub,2013-10-01 06:26:00,
2013-09-30 23:31:00,62.8,30.0,29.98,NNW,331,0.0,1.0,29,0.00,,,0.00,0.0,meteohub,2013-10-01 06:31:00,
2013-09-30 23:36:00,62.4,30.6,29.98,NNW,331,0.0,1.0,30,0.00,,,0.00,0.0,meteohub,2013-10-01 06:36:00,
2013-09-30 23:41:00,61.9,30.0,29.98,NNW,331,0.0,1.0,30,0.00,,,0.00,0.0,meteohub,2013-10-01 06:41:00,
2013-09-30 23:46:00,61.3,30.4,29.98,NNW,331,1.0,1.0,31,0.00,,,0.00,0.0,meteohub,2013-10-01 06:46:00,
2013-09-30 23:51:00,61.0,30.2,29.98,NNW,331,1.0,1.0,31,0.00,,,0.00,0.0,meteohub,2013-10-01 06:51:00,
2013-09-30 23:56:00,60.6,30.6,29.98,NNW,331,0.0,1.0,32,0.00,,,0.00,0.0,meteohub,2013-10-01 06:56:00,